[[{"header":{"parameterUnit":"m.s-1","parameterCategory":1,"la1":30.2992,"la2":30.254,"lo1":-89.0895,"lo2":-89.0443,"dy":0.0025,"dx":0.0025,"nx":19,"ny":19,"refTime":"2026-03-07T09:00:00:Z","depth":0,"parameterNumber":2,"parameterNumberName":"U-component_of_WINDS"},"data":[0,0,0,-2.3706,-2.3707,-2.3745,-2.3745,-2.3796,-2.3797,0,0,0,0,0,0,0,0,0,0,0,-2.3696,-2.3696,-2.3706,-2.3707,-2.3745,-2.3745,-2.3796,-2.3797,0,0,0,0,0,0,0,0,0,0,0,-2.3695,-2.3696,-2.3696,-2.3707,-2.3745,-2.3745,-2.3796,-2.3766,0,0,0,0,0,0,0,0,0,0,-2.3729,-2.3721,-2.3696,-2.3696,-2.3707,-2.3745,-2.3745,-2.3765,-2.3768,-2.378,0,-2.379,0,-2.3794,-2.38,-2.38,0,0,0,-2.3706,-2.3718,-2.3727,-2.3697,-2.3708,-2.3745,-2.3727,-2.3767,-2.377,-2.3784,-2.3791,-2.3793,-2.3795,-2.38,-2.3801,-2.3869,-2.3869,0,0,-2.3704,-2.3703,-2.3725,-2.373,-2.3724,-2.3726,-2.3729,-2.3769,-2.3776,-2.3791,-2.3794,-2.3796,-2.3801,-2.3801,-2.3868,-2.3869,0,0,0,-2.3698,-2.3702,-2.371,-2.3728,-2.3734,-2.3727,-2.373,-2.3774,-2.3777,-2.3794,-2.3796,-2.3801,-2.3802,-2.3868,-2.3869,-2.3884,0,0,0,-2.3697,-2.3698,-2.3709,-2.3709,-2.3734,-2.3755,-2.3735,-2.3774,-2.3779,-2.3796,-2.3801,-2.3802,-2.3868,-2.3868,-2.3883,-2.3891,0,0,0,-2.3693,-2.3698,-2.3704,-2.3709,-2.3725,-2.3754,-2.3759,-2.3775,-2.378,-2.38,-2.3802,-2.3867,-2.3868,-2.3882,-2.3889,-2.3908,0,0,0,-2.3688,-2.3718,-2.3704,-2.3738,-2.3725,-2.3764,-2.3759,-2.3788,-2.3807,-2.3801,-2.3868,-2.3869,-2.3881,-2.3888,-2.3907,-2.3922,-2.3929,0,0,-2.3725,-2.3722,-2.3743,-2.3731,-2.3772,-2.3758,-2.3802,-2.382,-2.3823,-2.3854,-2.3855,-2.3883,-2.3889,-2.3908,-2.397,-2.3975,0,0,0,-2.3754,-2.3768,-2.3779,-2.3797,-2.3812,-2.3825,-2.3838,-2.3844,-2.387,-2.3839,-2.3896,-2.39,-2.391,-2.3918,-2.3922,-2.3931,-2.3872,-2.3872,-2.3872,-2.3804,-2.3806,-2.384,-2.3846,-2.3864,-2.3876,-2.3891,-2.3902,-2.39,-2.3913,-2.3921,-2.3959,-2.3968,-2.3971,-2.398,-2.3931,-2.3931,-2.3931,-2.3932,-2.3858,-2.3877,-2.3873,-2.3904,-2.3906,-2.3932,-2.3945,-2.3943,-2.3967,-2.3953,-2.3963,-2.3945,-2.3977,-2.3985,-2.3933,-2.3933,-2.3932,-2.3932,-2.3932,-2.3889,-2.3899,-2.3907,-2.3933,-2.3953,-2.396,-2.3983,-2.3985,-2.3987,-2.3997,-2.4005,-2.4005,-2.4003,-2.4001,-2.4001,-2.4001,-2.4001,-2.4001,-2.4001,-2.3918,-2.3927,-2.3946,-2.3965,-2.3976,-2.3992,-2.4005,-2.4017,-2.403,-2.4029,-2.403,-2.4025,-2.398,-2.3968,-2.4003,-2.4003,-2.4003,-2.4003,-2.4002,-2.3968,-2.3957,-2.3987,-2.3999,-2.402,-2.404,-2.4042,-2.4066,-2.4076,-2.4087,-2.4081,-2.4049,-2.4046,-2.4042,-2.4032,-2.4082,-2.4082,-2.4082,-2.4082,-2.3994,-2.3993,-2.4023,-2.4042,-2.406,-2.4065,-2.4099,-2.411,-2.4119,-2.4126,-2.4119,-2.4106,-2.4103,-2.4102,-2.4097,-2.4087,-2.415,-2.415,-2.415,-2.4024,-2.4025,-2.4053,-2.4061,-2.4079,-2.4094,-2.4125,-2.4146,-2.4155,-2.4153,-2.413,-2.4127,-2.4107,-2.41,-2.4095,-2.4088,-2.407,0,0]},{"header":{"parameterUnit":"m.s-1","parameterCategory":1,"la1":30.2992,"la2":30.254,"lo1":-89.0895,"lo2":-89.0443,"dy":0.0025,"dx":0.0025,"nx":19,"ny":19,"refTime":"2026-03-07T09:00:00:Z","depth":0,"parameterNumber":3,"parameterNumberName":"V-component_of_WINDS"},"data":[0,0,0,2.632,2.632,2.6355,2.6355,2.6394,2.6394,0,0,0,0,0,0,0,0,0,0,0,2.6306,2.6307,2.632,2.632,2.6355,2.6355,2.6394,2.6394,0,0,0,0,0,0,0,0,0,0,0,2.6306,2.6306,2.6307,2.6321,2.6355,2.6355,2.6394,2.6369,0,0,0,0,0,0,0,0,0,0,2.6337,2.6321,2.6306,2.6307,2.6321,2.6355,2.6355,2.6368,2.6371,2.6376,0,2.638,0,2.6388,2.6396,2.6396,0,0,0,2.6323,2.6319,2.6332,2.6307,2.6321,2.6355,2.634,2.637,2.6373,2.6379,2.638,2.6382,2.6388,2.6396,2.6397,2.6421,2.6421,0,0,2.6321,2.6311,2.633,2.6333,2.6328,2.6339,2.6341,2.6372,2.6372,2.638,2.6383,2.6389,2.6397,2.6397,2.6421,2.6421,0,0,0,2.6314,2.6309,2.6321,2.6332,2.6338,2.634,2.6342,2.637,2.6375,2.6383,2.6389,2.6397,2.6397,2.6421,2.6421,2.6413,0,0,0,2.6313,2.6305,2.632,2.6314,2.6338,2.6355,2.634,2.6373,2.6377,2.6389,2.6397,2.6398,2.6421,2.6421,2.6413,2.641,0,0,0,2.6305,2.6304,2.6308,2.6313,2.6328,2.6354,2.6361,2.6374,2.638,2.6396,2.6398,2.6421,2.6421,2.6413,2.641,2.6415,0,0,0,2.6294,2.6299,2.6308,2.6316,2.6328,2.6349,2.6361,2.6377,2.639,2.6397,2.6421,2.6421,2.6413,2.6411,2.6415,2.6417,2.6416,0,0,2.6294,2.6298,2.6304,2.6313,2.6331,2.6345,2.6361,2.6382,2.6392,2.6411,2.6411,2.6413,2.641,2.6415,2.6418,2.6417,0,0,0,2.6301,2.6305,2.6312,2.6324,2.6341,2.6356,2.6375,2.6384,2.64,2.64,2.6415,2.6414,2.6417,2.6419,2.6418,2.6422,2.6421,2.6421,2.6421,2.6286,2.6301,2.6312,2.6331,2.6343,2.6365,2.6376,2.6391,2.64,2.6404,2.6409,2.641,2.6411,2.6411,2.6415,2.6411,2.6411,2.6411,2.6411,2.6289,2.6297,2.6313,2.6329,2.6345,2.6358,2.638,2.6387,2.6403,2.6406,2.6409,2.6412,2.641,2.6414,2.6411,2.6411,2.6411,2.6411,2.6411,2.6281,2.6288,2.6299,2.632,2.6335,2.6355,2.637,2.6383,2.6396,2.6399,2.6408,2.6408,2.641,2.6402,2.6402,2.6402,2.6402,2.6402,2.6402,2.6269,2.6281,2.6293,2.6313,2.6325,2.6341,2.6365,2.6376,2.6392,2.6401,2.6401,2.6411,2.6407,2.6406,2.6402,2.6402,2.6402,2.6402,2.6402,2.6266,2.627,2.6287,2.6298,2.6325,2.6341,2.6358,2.6381,2.6392,2.64,2.641,2.6405,2.6409,2.641,2.6409,2.6406,2.6406,2.6406,2.6406,2.626,2.6264,2.6287,2.6305,2.6324,2.6343,2.6363,2.6383,2.6403,2.6411,2.6414,2.6414,2.6414,2.6419,2.6419,2.6418,2.6418,2.6418,2.6418,2.626,2.6267,2.6282,2.6303,2.6326,2.6345,2.6366,2.6386,2.641,2.6419,2.6418,2.6418,2.6419,2.6418,2.6426,2.6426,2.6425,0,0]}]]